Content
SEND FEEDBACK

Daily
Averages
Monthly
Summary
United States of America

VERNON, VERMONT


Home > North America > United States > Vermont
Elevation: 238 feet     Latitude: 42 46N     Longitude: 072 31W

WEATHER
 
SELECT A DAY
Number of Records: 455,258;   Date Range: 1/1/95 - 11/27/14
 
SHARE

PRINT THIS DATA

[ ← Previous Day ]
WEATHER ALMANAC - AUGUST 8, 2014
[ Next Day → ]
[ °C ]   °F
Weather ElementAverageHighLow
Temperature63.4 °F78.8 °F (3:55 pm)50 °F (4:15 am)
Dewpoint48.5 °F53.6 °F (11:55 am)42.8 °F (2:55 am)
Humidity60.3 %77 % (2:35 am)39 % (2:35 pm)
Barometer30.04 in30.08 in (9:55 pm)29.99 in (12:15 am)
Wind Speed3.3 mph12.7 mph (2:15 pm)
Wind Gust18.4 mph (12:55 pm)
Weather ElementAverage
Visibility7.3 mi
Wind DirectionESE (126.9 °)

Weather ElementTotal
Precipitation---
Heating Degree Days0.6 (Base 65)
Growing Degree Days14.4 (Base 50)
Averaged from 70 records on August 8, 2014
WEATHER CONDITIONS BREAKOUT
WIND DIRECTION BREAKOUT
WEATHER BY HOUR - AUGUST 8, 2014
[ °C ]   °F
Local TimeTemperatureDewpointHumidityBarometerVisibilityWind DirectionWind SpeedGust SpeedPrecipitationEventsConditions
12:15 AM53.6 °F44.6 °F72 %29.99 in10.0 miCalmClear
12:35 AM51.8 °F44.6 °F76 %29.99 in10.0 miCalmClear
12:55 AM53.6 °F44.6 °F72 %30.00 in10.0 miCalmPartly Cloudy
1:15 AM53.6 °F44.6 °F72 %30.00 in10.0 miCalmMostly Cloudy
1:35 AM51.8 °F44.6 °F76 %30.00 in2.5 miCalmPartly Cloudy
2:15 AM51.8 °F44.6 °F76 %30.00 in0.5 miSW (230°)3.5 mphOvercast
2:35 AM51.8 °F44.6 °F76 %30.00 in0.8 miCalmOvercast
2:55 AM51.8 °F42.8 °F71 %29.99 in1.0 miCalmOvercast
3:15 AM51.8 °F42.8 °F71 %30.00 in0.2 miCalmOvercast
3:35 AM51.8 °F42.8 °F71 %29.99 in0.5 miCalmOvercast
3:55 AM51.8 °F42.8 °F71 %30.00 in1.0 miCalmOvercast
4:15 AM50.0 °F42.8 °F76 %30.01 in0.8 miCalmOvercast
4:35 AM50.0 °F42.8 °F76 %30.01 in0.5 miCalmOvercast
4:55 AM50.0 °F42.8 °F76 %30.02 in0.2 miCalmOvercast
5:15 AM50.0 °F42.8 °F76 %30.03 in0.5 miCalmOvercast
5:35 AM50.0 °F42.8 °F76 %30.04 in0.5 miCalmOvercast
5:55 AM50.0 °F42.8 °F76 %30.04 in0.2 miCalmOvercast
6:15 AM51.8 °F42.8 °F71 %30.05 in0.2 miCalmOvercast
6:35 AM51.8 °F42.8 °F71 %30.05 in0.2 miCalmOvercast
6:55 AM51.8 °F42.8 °F71 %30.06 in0.8 miCalmOvercast
7:15 AM51.8 °F44.6 °F76 %30.06 in0.2 miCalmOvercast
7:35 AM51.8 °F44.6 °F76 %30.06 in0.2 miCalmOvercast
7:55 AM53.6 °F44.6 °F72 %30.06 in0.5 miSSW (200°)4.6 mphOvercast
8:15 AM53.6 °F46.4 °F77 %30.06 in2.5 miSW (220°)3.5 mphOvercast
8:35 AM55.4 °F46.4 °F72 %30.06 in10.0 miCalmMostly Cloudy
8:55 AM57.2 °F48.2 °F72 %30.07 in10.0 miCalmClear
9:15 AM60.8 °F48.2 °F63 %30.07 in10.0 miCalmClear
9:35 AM62.6 °F50.0 °F63 %30.06 in10.0 miCalmClear
9:55 AM66.2 °F51.8 °F60 %30.06 in10.0 miCalmClear
10:15 AM66.2 °F51.8 °F60 %30.06 in10.0 miNorth (360°)4.6 mphClear
10:35 AM69.8 °F51.8 °F53 %30.06 in10.0 miNorth (360°)6.9 mphClear
10:55 AM69.8 °F51.8 °F53 %30.06 in10.0 miNorth (360°)5.8 mphClear
11:15 AM71.6 °F51.8 °F50 %30.05 in10.0 miNorth (360°)5.8 mphClear
11:35 AM73.4 °F51.8 °F47 %30.05 in10.0 miNNW (340°)10.4 mphScattered Clouds
11:55 AM73.4 °F51.8 °F47 %30.04 in10.0 miNorth (360°)6.9 mphPartly Cloudy
12:15 PM75.2 °F51.8 °F44 %30.04 in10.0 miNorth (350°)8.1 mph18.4 mphPartly Cloudy
12:35 PM75.2 °F51.8 °F44 %30.03 in10.0 miNorth (350°)9.2 mphScattered Clouds
12:55 PM75.2 °F53.6 °F47 %30.03 in10.0 miNorth (10°)10.4 mphScattered Clouds
1:15 PM75.2 °F51.8 °F44 %30.03 in10.0 miWNW (300°)9.2 mphScattered Clouds
1:35 PM75.2 °F50.0 °F41 %30.02 in10.0 miNW (320°)8.1 mphPartly Cloudy
1:55 PM75.2 °F51.8 °F44 %30.02 in10.0 miNorth (10°)10.4 mphScattered Clouds
2:15 PM75.2 °F51.8 °F44 %30.02 in10.0 miNorth (350°)9.2 mphMostly Cloudy
2:35 PM77.0 °F53.6 °F44 %30.02 in10.0 miNorth (10°)10.4 mphScattered Clouds
2:55 PM77.0 °F51.8 °F41 %30.01 in10.0 miNNW (340°)8.1 mphScattered Clouds
3:15 PM77.0 °F51.8 °F41 %30.01 in10.0 miWNW (290°)6.9 mphPartly Cloudy
3:35 PM77.0 °F51.8 °F41 %30.01 in10.0 miNorth (360°)12.7 mphMostly Cloudy
3:55 PM78.8 °F51.8 °F39 %30.01 in10.0 miNorth (360°)12.7 mph17.3 mphScattered Clouds
4:35 PM75.2 °F51.8 °F44 %30.01 in10.0 miNorth (10°)10.4 mphPartly Cloudy
4:55 PM77.0 °F51.8 °F41 %30.01 in10.0 miNorth (350°)5.8 mphPartly Cloudy
5:15 PM75.2 °F51.8 °F44 %30.01 in10.0 miNorth (350°)6.9 mphMostly Cloudy
5:35 PM77.0 °F51.8 °F41 %30.01 in10.0 miNorth (360°)9.2 mphScattered Clouds
5:55 PM77.0 °F51.8 °F41 %30.01 in10.0 miNNW (340°)5.8 mphClear
6:15 PM77.0 °F51.8 °F41 %30.01 in10.0 miNNW (340°)5.8 mphClear
6:35 PM77.0 °F51.8 °F41 %30.02 in10.0 miNW (310°)3.5 mphPartly Cloudy
6:55 PM75.2 °F51.8 °F44 %30.02 in10.0 miNW (320°)5.8 mphMostly Cloudy
7:15 PM75.2 °F51.8 °F44 %30.03 in10.0 miNNW (330°)5.8 mphOvercast
7:35 PM73.4 °F51.8 °F47 %30.04 in10.0 miNNW (330°)4.6 mphMostly Cloudy
7:55 PM71.6 °F51.8 °F50 %30.04 in10.0 miCalmClear
8:15 PM66.2 °F53.6 °F64 %30.04 in10.0 miCalmClear
8:35 PM64.4 °F51.8 °F64 %30.05 in10.0 miCalmClear
8:55 PM62.6 °F51.8 °F68 %30.06 in10.0 miCalmClear
9:15 PM62.6 °F50.0 °F63 %30.07 in10.0 miCalmClear
9:35 PM60.8 °F50.0 °F68 %30.07 in10.0 miCalmClear
9:55 PM60.8 °F50.0 °F68 %30.08 in10.0 miCalmClear
10:15 PM60.8 °F50.0 °F68 %30.08 in10.0 miCalmClear
10:35 PM59.0 °F48.2 °F67 %30.08 in10.0 miCalmClear
10:55 PM57.2 °F48.2 °F72 %30.08 in10.0 miCalmClear
11:15 PM57.2 °F48.2 °F72 %30.08 in10.0 miCalmClear
11:35 PM57.2 °F48.2 °F72 %30.08 in10.0 miCalmClear
11:55 PM57.2 °F48.2 °F72 %30.08 in10.0 miCalmClear
Hourly data recorded from KEEN, located miles away from Vernon, Vermont







STORIES FROM OUR PARTNERS